Olivia, MN

12:04 AM CDT on March 27, 2017 (GMT -0500)
Olivia Regional

Weather History for KOVL - March, 2014

Change the Weather History Date:

Monday, March 10, 2014

  Actual Average (KRWF) Record (KRWF)
Temperature  
Mean Temperature 42 °F -  
Max Temperature 50 °F 36 °F 64 °F (2012)
Min Temperature 33 °F 19 °F -16 °F (1948)
Degree Days  
Heating Degree Days 24    
Moisture  
Dew Point 36 °F    
Average Humidity 84    
Maximum Humidity 93    
Minimum Humidity 71    
Precipitation  
Precipitation 0.00 in - - ()
Sea Level Pressure  
Sea Level Pressure 29.68 in    
Wind  
Wind Speed 6 mph (West)    
Max Wind Speed 10 mph    
Max Gust Speed -    
Visibility 10 miles    
Events      
Averages and records for this station are not official NWS values.
T = Trace of Precipitation, MM = Missing Value Source: NWS Daily Summary

Daily Weather History Graph

Daily Weather History Graph

Search for Another Location

Airport or City:

Trip Planner

Search our weather history database for the weather conditions in past years. The results will help you decide how hot, cold, wet, or windy it might be!

Date:

Astronomy

Mar. 10, 2014 Rise Set
Actual Time 7:41 AM CDT 7:19 PM CDT
Civil Twilight 7:12 AM CDT 7:48 PM CDT
Nautical Twilight 6:38 AM CDT 8:22 PM CDT
Astronomical Twilight 6:04 AM CDT 8:57 PM CDT
Moon 1:54 PM CDT (3/10) 4:04 AM CDT (3/10)
Length of Visible Light 12h 36m
Length of Day
11h 38m
Waxing Gibbous, 70% of the Moon is Illuminated
Mar 10
Waxing Gibbous
Mar 16
Full
Mar 23
Last Quarter
Mar 30
New
Apr 7
First Quarter

Hourly Weather History & Observations

Time (CDT) Temp. Windchill Dew Point Humidity Pressure Visibility Wind Dir Wind Speed Gust Speed Precip Events Conditions
12:12 AM 35.6 °F 29.9 °F 32.0 °F 87% 29.66 in 10.0 mi SW 6.9 mph - N/A   Clear
12:33 AM 35.6 °F 29.9 °F 32.0 °F 87% 29.65 in 10.0 mi SW 6.9 mph - N/A   Clear
12:53 AM 35.6 °F 29.9 °F 32.0 °F 87% 29.65 in 10.0 mi SW 6.9 mph - N/A   Clear
1:12 AM 35.6 °F 31.7 °F 32.0 °F 87% 29.64 in 10.0 mi WSW 4.6 mph - N/A   Clear
1:33 AM 35.6 °F 30.7 °F 32.0 °F 87% 29.65 in 10.0 mi WSW 5.8 mph - N/A   Clear
1:53 AM 35.6 °F 29.9 °F 32.0 °F 87% 29.65 in 10.0 mi WSW 6.9 mph - N/A   Clear
2:13 AM 35.6 °F 29.9 °F 32.0 °F 87% 29.65 in 10.0 mi WSW 6.9 mph - N/A   Clear
2:33 AM 35.6 °F 29.9 °F 32.0 °F 87% 29.65 in 10.0 mi WSW 6.9 mph - N/A   Clear
2:53 AM 37.4 °F 30.8 °F 32.0 °F 81% 29.64 in 10.0 mi WSW 9.2 mph - N/A   Clear
3:13 AM 37.4 °F 31.4 °F 32.0 °F 81% 29.65 in 10.0 mi West 8.1 mph - N/A   Clear
3:33 AM 37.4 °F 30.8 °F 32.0 °F 81% 29.65 in 10.0 mi West 9.2 mph - N/A   Clear
3:53 AM 39.2 °F 34.2 °F 33.8 °F 81% 29.64 in 10.0 mi West 6.9 mph - N/A   Clear
4:13 AM 35.6 °F 29.9 °F 32.0 °F 87% 29.64 in 10.0 mi West 6.9 mph - N/A   Clear
4:33 AM 33.8 °F 27.0 °F 32.0 °F 93% 29.63 in 10.0 mi West 8.1 mph - N/A   Clear
4:53 AM 33.8 °F 27.7 °F 32.0 °F 93% 29.63 in 10.0 mi West 6.9 mph - N/A   Clear
5:13 AM 35.6 °F 28.6 °F 32.0 °F 87% 29.64 in 10.0 mi West 9.2 mph - N/A   Clear
5:33 AM 35.6 °F 28.6 °F 32.0 °F 87% 29.64 in 10.0 mi West 9.2 mph - N/A   Clear
5:53 AM 35.6 °F 29.2 °F 32.0 °F 87% 29.64 in 10.0 mi West 8.1 mph - N/A   Clear
6:13 AM 33.8 °F 27.7 °F 32.0 °F 93% 29.65 in 10.0 mi West 6.9 mph - N/A   Clear
6:33 AM 33.8 °F 28.6 °F 32.0 °F 93% 29.65 in 10.0 mi West 5.8 mph - N/A   Clear
6:53 AM 33.8 °F 30.8 °F 32.0 °F 93% 29.65 in 10.0 mi WSW 3.5 mph - N/A   Clear
7:13 AM 33.8 °F 28.6 °F 32.0 °F 93% 29.65 in 10.0 mi WSW 5.8 mph - N/A   Clear
7:33 AM 33.8 °F 28.6 °F 32.0 °F 93% 29.64 in 10.0 mi WSW 5.8 mph - N/A   Clear
7:53 AM 33.8 °F 27.0 °F 32.0 °F 93% 29.65 in 10.0 mi West 8.1 mph - N/A   Clear
8:13 AM 33.8 °F 27.7 °F 32.0 °F 93% 29.66 in 10.0 mi West 6.9 mph - N/A   Clear
8:33 AM 35.6 °F 29.9 °F 32.0 °F 87% 29.67 in 10.0 mi West 6.9 mph - N/A   Clear
8:53 AM 37.4 °F 31.4 °F 33.8 °F 87% 29.67 in 10.0 mi West 8.1 mph - N/A   Clear
9:13 AM 39.2 °F 33.6 °F 33.8 °F 81% 29.67 in 10.0 mi West 8.1 mph - N/A   Clear
9:33 AM 39.2 °F 33.6 °F 33.8 °F 81% 29.69 in 10.0 mi West 8.1 mph - N/A   Clear
9:53 AM 39.2 °F 33.6 °F 33.8 °F 81% 29.69 in 10.0 mi West 8.1 mph - N/A   Clear
10:13 AM 42.8 °F 37.0 °F 35.6 °F 76% 29.69 in 10.0 mi WNW 10.4 mph - N/A   Clear
10:33 AM 42.8 °F 37.0 °F 35.6 °F 76% 29.69 in 10.0 mi NW 10.4 mph - N/A   Clear
10:53 AM 42.8 °F 38.6 °F 35.6 °F 76% 29.70 in 10.0 mi WNW 6.9 mph - N/A   Clear
11:13 AM 44.6 °F 40.2 °F 37.4 °F 76% 29.70 in 10.0 mi NW 8.1 mph - N/A   Clear
11:33 AM 46.4 °F 41.5 °F 37.4 °F 71% 29.70 in 10.0 mi NW 10.4 mph - N/A   Clear
11:53 AM 46.4 °F 41.9 °F 37.4 °F 71% 29.69 in 10.0 mi NW 9.2 mph - N/A   Clear
12:13 PM 50.0 °F - 41.0 °F 71% 29.70 in 10.0 mi NW 9.2 mph - N/A   Clear
12:32 PM 50.0 °F - 41.0 °F 71% 29.70 in 10.0 mi WNW 8.1 mph - N/A   Clear
12:53 PM 50.0 °F - 42.8 °F 76% 29.70 in 10.0 mi WNW 6.9 mph - N/A   Clear
1:13 PM 50.0 °F - 41.0 °F 71% 29.70 in 10.0 mi WNW 8.1 mph - N/A   Clear
1:32 PM 50.0 °F - 41.0 °F 71% 29.70 in 10.0 mi NW 10.4 mph - N/A   Clear
1:53 PM 50.0 °F - 41.0 °F 71% 29.69 in 10.0 mi NW 10.4 mph - N/A   Clear
2:13 PM 50.0 °F - 42.8 °F 76% 29.69 in 10.0 mi NW 6.9 mph - N/A   Clear
2:33 PM 50.0 °F - 42.8 °F 76% 29.68 in 10.0 mi NW 8.1 mph - N/A   Clear
2:53 PM 50.0 °F - 42.8 °F 76% 29.68 in 10.0 mi WNW 5.8 mph - N/A   Clear
3:13 PM 50.0 °F - 42.8 °F 76% 29.67 in 10.0 mi WNW 5.8 mph - N/A   Clear
3:33 PM 50.0 °F - 42.8 °F 76% 29.68 in 10.0 mi WNW 6.9 mph - N/A   Clear
3:53 PM 50.0 °F - 42.8 °F 76% 29.68 in 10.0 mi WNW 6.9 mph - N/A   Clear
4:13 PM 50.0 °F - 42.8 °F 76% 29.68 in 10.0 mi West 4.6 mph - N/A   Clear
4:33 PM 50.0 °F - 44.6 °F 82% 29.68 in 10.0 mi West 4.6 mph - N/A   Clear
4:53 PM 50.0 °F - 44.6 °F 82% 29.68 in 10.0 mi West 4.6 mph - N/A   Clear
5:13 PM 50.0 °F - 44.6 °F 82% 29.68 in 10.0 mi NW 3.5 mph - N/A   Clear
5:33 PM 50.0 °F - 44.6 °F 82% 29.68 in 10.0 mi NW 4.6 mph - N/A   Clear
5:52 PM 50.0 °F - 44.6 °F 82% 29.68 in 10.0 mi Calm Calm - N/A   Clear
6:13 PM 46.4 °F 45.2 °F 42.8 °F 87% 29.68 in 10.0 mi NW 3.5 mph - N/A   Clear
6:33 PM 46.4 °F 44.3 °F 42.8 °F 87% 29.69 in 10.0 mi NW 4.6 mph - N/A   Scattered Clouds
6:53 PM 44.6 °F 43.1 °F 41.0 °F 87% 29.68 in 10.0 mi NW 3.5 mph - N/A   Mostly Cloudy
7:13 PM 42.8 °F - 39.2 °F 87% 29.69 in 10.0 mi Calm Calm - N/A   Mostly Cloudy
7:33 PM 42.8 °F - 37.4 °F 81% 29.69 in 10.0 mi Calm Calm - N/A   Overcast
7:53 PM 42.8 °F - 39.2 °F 87% 29.70 in 10.0 mi Calm Calm - N/A   Overcast
8:13 PM 39.2 °F - 35.6 °F 87% 29.71 in 1.2 mi Calm Calm - N/A   Overcast
8:33 PM 41.0 °F 38.0 °F 37.4 °F 87% 29.70 in 4.0 mi NNE 4.6 mph - N/A   Overcast
8:53 PM 41.0 °F 37.1 °F 37.4 °F 87% 29.70 in 1.0 mi NE 5.8 mph - N/A   Overcast
9:13 PM 41.0 °F - 37.4 °F 87% 29.70 in 10.0 mi Calm Calm - N/A   Overcast
9:33 PM 39.2 °F 34.2 °F 35.6 °F 87% 29.72 in 10.0 mi SW 6.9 mph - N/A   Overcast
9:53 PM 39.2 °F 35.9 °F 35.6 °F 87% 29.72 in 10.0 mi SW 4.6 mph - N/A   Overcast
10:13 PM 39.2 °F 35.9 °F 35.6 °F 87% 29.72 in 10.0 mi WSW 4.6 mph - N/A   Overcast
10:33 PM 37.4 °F - 35.6 °F 93% 29.71 in 10.0 mi Calm Calm - N/A   Mostly Cloudy
10:53 PM 37.4 °F - 35.6 °F 93% 29.71 in 10.0 mi Calm Calm - N/A   Scattered Clouds
11:13 PM 35.6 °F - 33.8 °F 93% 29.71 in 10.0 mi Calm Calm - N/A   Mostly Cloudy
11:33 PM 35.6 °F - 33.8 °F 93% 29.71 in 10.0 mi Calm Calm - N/A   Overcast
11:53 PM 35.6 °F 32.8 °F 33.8 °F 93% 29.71 in 10.0 mi WNW 3.5 mph - N/A   Overcast